Regional Weather Roundup
Issued by NWS Wakefield, VA

Home | Current Version | Previous Version | Graphics & Text | Print | Product List | Glossary On
Versions: 1 2 3 4 5 6 7 8 9 10 11 12 13 14 15 16 17 18 19 20 21 22 23 24 25 26 27 28
000
ASUS41 KAKQ 280315
RWRAKQ

REGIONAL WEATHER ROUNDUP
NATIONAL WEATHER SERVICE WAKEFIELD VA
1100 PM EDT SAT MAY 27 2017

Note: "fair" indicates few or no clouds below 12,000 feet with no
significant weather and/or obstructions to visibility. * = Denotes
station may not report precipitation (e.g., rain,snow,etc.),
thunder or fog.

VAZ042-051-052>054-056-280400-
NORTHERN VIRGINIA

CITY           SKY/WX    TMP DP  RH WIND       PRES   REMARKS
WASH NATIONAL  CLOUDY    67  62  84 NE6       29.92S
DULLES         CLOUDY    64  62  93 CALM      29.92S
FORT BELVOIR   CLOUDY    66  60  81 CALM      29.92S
QUANTICO       CLOUDY    68  63  84 NE8       29.92F
FREDERICKSBRG* PTCLDY    67  63  87 N3        29.90S
STAFFORD*      MOCLDY    64  62  92 CALM      29.95S
WARRENTON      CLOUDY    67  60  78 CALM      29.92S
CULPEPER*      CLOUDY    66  64  92 N3        29.93S
MANASSAS*      CLOUDY    67  61  81 CALM      29.93S
LEESBURG*      CLOUDY    66  64  94 CALM      29.93F
WINCHESTER     CLOUDY    61  61 100 CALM      29.93S
FRONT ROYAL*   CLOUDY    64  63  94 CALM      29.91S
LURAY*         CLOUDY    64  63  94 N5        29.93R
$$

VAZ048-049-060>072-079>083-280400-
CENTRAL AND SOUTH CENTRAL VIRGINIA

CITY           SKY/WX    TMP DP  RH WIND       PRES   REMARKS
RICHMOND       CLOUDY    66  63  90 N6        29.89R
CHESTERFIELD*  NOT AVBL
PETERSBURG*    CLOUDY    64  63  97 CALM      29.89R
HANOVER        CLOUDY    65  63  93 CALM      29.90S
TAPPAHANNOCK*  CLOUDY    69  63  82 CALM      29.90S
QUINTON*       FAIR      65  65 100 CALM      29.89R
CHARLOTTSVILLE CLOUDY    68  65  90 NE6       29.92R
GORDONSVILLE*  CLOUDY    67  65  92 CALM      29.92R
ORANGE*        CLOUDY    64  63  94 N3        29.93R
LOUISA*        PTCLDY    70  66  88 CALM      29.91R
BUMPASS*       FAIR      65  65 100 N5        29.90R
FARMVILLE*     PTCLDY    68  64  85 NE6       29.89R
CREWE*         FAIR      65  61  86 CALM      29.89R
FORT PICKETT*  FAIR      66  62  87 S7        29.89R
CHASE CITY*    FAIR      71  70  95 NE3       29.89R
CLARKSVILLE*   FAIR      70  70 100 CALM      29.88R
SOUTH HILL*    PTCLDY    69  65  86 CALM      29.95R
LAWRENCEVILLE* MOCLDY    69  64  83 CALM      29.90R
EMPORIA*         N/A     66  64  94 E3        29.90S
$$

VAZ088>098-280400-
SOUTHEAST VIRGINIA

CITY           SKY/WX    TMP DP  RH WIND       PRES   REMARKS
NORFOLK        LGT RAIN  72  61  68 VRB5      29.83F
VIRGINIA BEACH TSTM      71  64  78 VRB3      29.87R
NORFOLK NAVAL  CLOUDY    72  59  63 W8G20     29.90R THUNDER
WEST POINT*    MOCLDY    67  65  94 CALM      29.90R
SALUDA*        FAIR      67  65  94 CALM      29.89F
NEWPORT NEWS   CLOUDY    68  64  87 NE5       29.87F
LANGLEY AFB    MOCLDY    71  65  81 NW5       29.87F
FORT EUSTIS    CLOUDY    69  64  83 CALM      29.86S
WILLIAMSBURG*  CLOUDY    68  64  88 CALM      29.89S
HR EXEC AP*    FAIR      64  61  88 W3        29.86F THUNDER
FRANKLIN*      CLOUDY    65  62  91 SE5       29.89F
US460-WAKEFLD  MOCLDY    66  65  96 CALM      29.87F THUNDER
$$

VAZ020-022-025-037-045-280400-
WEST CENTRAL AND SOUTHWEST VIRGINIA

CITY           SKY/WX    TMP DP  RH WIND       PRES   REMARKS
STAUNTON*      CLOUDY    66  63  90 CALM      29.95R
WAYNESBORO*    MOCLDY    66  65  96 SE3       29.95R
HOT SPRINGS VA CLOUDY    64  55  72 W9        30.02S
LYNCHBURG      PTCLDY    71  65  81 VRB3      29.91R
DANVILLE       CLOUDY    71  69  93 SW3       29.88R
SOUTH BOSTON*  FAIR      70  68  95 CALM      29.88R
MARTINSVILLE   CLOUDY    72  62  70 CALM      29.90F
ROANOKE        CLOUDY    74  66  76 W6        29.92R
BLACKSBURG     CLOUDY    69  64  86 W5        29.97F
DUBLIN*        PTCLDY    67  61  81 W10       29.96S
MARION*        FOG       62  59  90 CALM      30.02F VSB 3/4
HILLSVILLE*    CLOUDY    63  56  80 SW7       29.97F
RICHLANDS*     FAIR      63  63 100 S8        29.99F FOG
WISE*          CLOUDY    61  61 100 CALM      30.01R
ABINGDON*      LGT RAIN  63  62  99 S6        29.98F
$$

MDZ021>025-VAZ099-100-280400-
SOUTHERN MARYLAND AND THE DELMARVA PENINSULA

CITY           SKY/WX    TMP DP  RH WIND       PRES   REMARKS
PATUXENT RIVER CLOUDY    68  66  93 S3        29.90R
BAY BRIDGE APT CLOUDY    64  61  88 CALM      29.93R
LEONARDTOWN    CLOUDY    64  63  94 CALM      29.92S
DOVER          CLOUDY    63  63 100 S5        29.92R
GEORGETOWN     CLOUDY    65  57  75 NE5       29.93R
EASTON         PTCLDY    64  58  80 E5        29.95S
CAMBRIDGE      CLOUDY    66  61  82 CALM      29.91R
SALISBURY      PTCLDY    64  57  78 E5        29.91R
OCEAN CITY     CLOUDY    63  57  81 E5        29.92S
WALLOPS ISLAND CLOUDY    65  59  81 E7        29.91R
ACCOMACK*      TSTM      64  51  61 E6        29.89R
$$

NCZ012>017-030>032-280400-
NORTH CENTRAL AND EASTERN NORTH CAROLINA

CITY           SKY/WX    TMP DP  RH WIND       PRES   REMARKS
ROANOKE RAPIDS CLOUDY    72  63  73 E3        29.89R
RALEIGH        CLOUDY    76  67  73 SW6       29.89R
ELIZABETH CITY CLOUDY    68  67  96 W6        29.93S THUNDER
AHOSKIE*       NOT AVBL
EDENTON*       CLOUDY    72  65  80 NE10      29.93R
CURRITUCK*     NOT AVBL
KILL DEVIL HLS LGT RAIN  76  68  77 CALM      29.88R
MANTEO         CLOUDY    75  70  83 SW8       29.90R
CAPE HATTERAS  PTCLDY    76  71  85 SW12      29.90F
TARBORO*       NOT AVBL
GOLDSBORO      CLEAR     74  72  92 CALM      29.88R
WASHINGTON     PTCLDY    76  70  82 S6        29.89S
GREENVILLE     MOCLDY    73  68  83 S3        29.91R
NEW BERN       CLEAR     73  70  90 S5        29.91R
WILMINGTON     CLEAR     75  69  81 SW8       29.91S
$$

VAZ048-280400-
ELSEWHERE

CITY           SKY/WX    TMP DP  RH WIND       PRES   REMARKS
HARRISBURG PA  MOCLDY    60  58  92 CALM      29.91R
BALTIMORE      CLOUDY    64  62  93 CALM      29.93R
ANNAPOLIS      CLOUDY    66  64  93 NW3       29.93R
ANDREWS AFB    CLOUDY    64  60  86 NE3       29.91S
PHILADELPHIA   CLOUDY    65  59  81 SW6       29.91S
HENDERSON NC   CLOUDY    68  66  93 CALM      29.89R
GREENSBORO     CLOUDY    77  65  66 NW18      29.92R THUNDER
ROCKY MOUNT    CLOUDY    73  70  90 CALM      29.88R
$$

VAZ100-280400-
MARINE

STATION/POSITION TIME  TEMP    WIND        PRES    WAVE   SWELL
                       AIR SEA DIR/SP/G            HT/PER HT/PER
                 (UTC) (F)     (DEG/KT/KT) (MB)    (FT/S) (FT/S)
CAPE MAY NJ      0248   61 64  110/  2/  2 1012.8R
LEWES DE         0248   63 64  160/  2/  3 1013.0R
15NM E FENWICK I 0150   62 61   80/ 10/ 12 1012.8    2/ 8   2/ 8
WACHAPREAGUE VA  0248   65 72  350/  5/  8 1012.5R
THOMAS POINT MD  0300   65 65   20/  8/  9   N/A
GOOSES REEF MD   0250   68      70/  8/  8 1013.4R
COVE POINT MD    0248   68      80/  5/  7 1013.3R
SOLOMONS ISLAND  0248   69 68  100/  2/  3   N/A
BISHOPS HEAD MD  0248   68 75  130/  4/  7 1013.4R
PINEY POINT MD   0248           CALM  /  2   N/A
POTOMAC MD       0250   68      80/  6/  8 1011.5R
CAMBRIDGE MD     0242   67 71                N/A
LEWISETTA VA     0248   68 71  100/  5/  5 1012.4R
RAPPAHANNOCK LGT 0248           50/  9/  9 1012.6R
STINGRAY PT      0250   67     120/  8/ 10 1011.9R
YORK RVR RNG VA  0248   70     210/  1/  2 1011.4R
YORKTOWN VA      0248   70 70   CALM  /  4 1011.5F
JAMESTOWN VA     0250   69     140/  2/  4   N/A
DOMINION TERM VA 0248   70     290/  3/  6 1011.8R
KIPTOPEKE VA     0248      69   70/  9/ 10   N/A
CHES BAY BRIDGE  0248   71 68  320/ 15/ 17 1012.1R
CAPE HENRY VA    0248   71      CALM  /  4   N/A
WILLOUBY STN VA  0248   70     280/ 21/ 23 1011.6R
S CRANEY ISL VA  0248   72     220/ 10/ 14 1010.8F
CAPE HENRY BUOY  0242      65                N/A     2/ 7
1ST LANDING BUOY 0250   70                 1011.5R
CAPE CHARLES BUO 0251      65                N/A     2/ 7
64NM E OF VA BCH 0250   69 65  220/ 14/ 16 1011.5R   2/ 8   2/ 8
DUCK PIER NC     0248   72 63  310/ 23/ 32 1012.6R
44100 DUCK FRF   0205      68                N/A     2/ 7
44056 DUCK FRF   0230      67                N/A     2/ 8
OREGON INLET NC  0242   75 77  200/ 13/ 16 1011.8F
HATTERAS NC      0224   75 75  210/  7/ 11 1012.5
DIAMOND SHLS NC  0250   77 78  230/ 19/ 21 1012.5R   3/ 4   2/ 9
CAPE LOOKOUT NC  0200   76     220/ 11/ 15 1012.5R
$$




USA.gov is the U.S. government's official web portal to all federal, state and local government web resources and services.